Location: Wells
(51.2093°N, 2.6446°W)
Time: 08:06:18
(UTC+01:00)

SO-50 - Pass Details

Date: 20 March 2026
Orbit: 567 x 673 km, 64.6° (Epoch: 17 April)

Event Time Altitude Azimuth Distance (km) Brightness Sun altitude
Rises 23:08:29 0° 317° (NW) 3,028 ? -36.6°
Reaches altitude 10° 23:11:03 10° 328° (NNW) 2,115 ? -36.7°
Enters shadow 23:12:54 20° 344° (NNW) 1,547 ? -36.8°
